Stations météo

Publicité
Edinburgh/Royal Botanic Garden , Grande-Bretagne (99180): Température de l'air & dewpoint: 18.01.2021 06:00:00 - 24.01.2021 06:00:00 (GMT)Edinburgh/Royal Botanic Garden , Grande-Bretagne (99180): Température de l'air -20cm & Température de l'air -100cm: 18.01.2021 06:00:00 - 24.01.2021 06:00:00 (GMT)Edinburgh/Royal Botanic Garden , Grande-Bretagne (99180): Quantités de précipitations: 18.01.2021 06:00:00 - 24.01.2021 06:00:00 (GMT)
Date & Time tt [°C] td [°C] tt -20cm [°C] tt -100cm [°C] rr [mm]
24.01.2021 06:00:00 -4,1 -4,9 - - 0,0
24.01.2021 05:00:00 -3,6 -4,3 - - 0,0
24.01.2021 04:00:00 -3,0 -3,7 - - 0,0
24.01.2021 03:00:00 -2,7 -3,3 - - 0,0
24.01.2021 02:00:00 -3,4 -4,3 - - 0,0
24.01.2021 01:00:00 -2,7 -3,8 - - 0,0
24.01.2021 00:00:00 -2,4 -3,7 - - 0,0
23.01.2021 23:00:00 -1,3 -2,9 - - 0,0
23.01.2021 22:00:00 -1,4 -3,3 - - 0,0
23.01.2021 21:00:00 -1,4 -3,2 - - 0,0
23.01.2021 20:00:00 -1,3 -3,5 - - 0,0
23.01.2021 19:00:00 -0,9 -2,9 - - 0,0
23.01.2021 18:00:00 -1,4 -3,2 - - 0,0
23.01.2021 17:00:00 -0,6 -2,7 - - 0,0
23.01.2021 16:00:00 1,1 -1,8 - - 0,0
23.01.2021 15:00:00 2,4 -1,7 - - 0,0
23.01.2021 14:00:00 2,8 -0,8 - - 0,2
23.01.2021 13:00:00 1,4 -0,9 - - 0,0
23.01.2021 12:00:00 0,8 -1,1 - - 0,0
23.01.2021 11:00:00 -0,4 -1,1 - - 0,0
23.01.2021 10:00:00 -2,4 -3,1 - - 0,0
23.01.2021 09:00:00 -2,3 -3,0 2,7 4,9 0,0
23.01.2021 08:00:00 -2,3 -3,0 - - 0,0
23.01.2021 07:00:00 -2,8 -3,5 - - 0,0
23.01.2021 06:00:00 -3,0 -3,9 - - 0,0
23.01.2021 05:00:00 -2,0 -2,9 - - 0,0
23.01.2021 04:00:00 -2,2 -3,0 - - 0,0
23.01.2021 03:00:00 -1,6 -2,6 - - 0,0
23.01.2021 02:00:00 -1,7 -2,6 - - 0,0
23.01.2021 01:00:00 -1,5 -2,5 - - 0,0
23.01.2021 00:00:00 -1,7 -2,8 - - 0,0
22.01.2021 23:00:00 -0,5 -1,8 - - 0,0
22.01.2021 22:00:00 -0,4 -1,7 - - 0,0
22.01.2021 21:00:00 -0,3 -1,3 - - 0,0
22.01.2021 20:00:00 -0,4 -1,7 - - 0,0
22.01.2021 19:00:00 0,0 -2,0 - - 0,0
22.01.2021 18:00:00 0,9 -1,5 - - 0,0
22.01.2021 17:00:00 1,4 -1,2 - - 0,0
22.01.2021 16:00:00 3,1 -0,6 - - 0,0
22.01.2021 15:00:00 4,3 -0,5 - - 0,0
22.01.2021 14:00:00 5,2 0,2 - - 0,0
22.01.2021 13:00:00 4,2 0,0 - - 0,0
22.01.2021 12:00:00 4,0 0,3 - - 0,2
22.01.2021 11:00:00 2,8 0,1 - - 0,0
22.01.2021 10:00:00 2,0 -0,3 - - 0,0
22.01.2021 09:00:00 1,2 -0,6 3,0 4,9 0,0
22.01.2021 08:00:00 1,3 -0,8 - - 0,0
22.01.2021 07:00:00 1,3 -0,7 - - 0,2
22.01.2021 06:00:00 1,9 -0,6 - - 0,0
22.01.2021 05:00:00 2,4 -0,5 - - 0,0
22.01.2021 04:00:00 2,4 -0,4 - - 0,0
22.01.2021 03:00:00 2,1 -0,5 - - 0,0
22.01.2021 02:00:00 2,3 -0,8 - - 0,0
22.01.2021 01:00:00 2,5 -0,6 - - 0,0
22.01.2021 00:00:00 2,8 -0,6 - - 0,2
21.01.2021 23:00:00 2,8 -0,5 - - 0,0
21.01.2021 22:00:00 2,7 -0,7 - - 0,0
21.01.2021 21:00:00 2,5 -0,3 - - 0,0
21.01.2021 20:00:00 2,6 -0,2 - - 0,0
21.01.2021 19:00:00 2,8 0,0 - - 0,0
21.01.2021 18:00:00 3,0 -0,1 - - 0,2
21.01.2021 17:00:00 3,2 -0,2 - - 0,2
21.01.2021 16:00:00 3,4 0,1 - - 0,4
21.01.2021 15:00:00 3,8 0,6 - - 1,2
21.01.2021 14:00:00 3,8 0,9 - - 2,0
21.01.2021 13:00:00 3,7 0,8 - - 3,0
21.01.2021 12:00:00 3,0 0,8 - - 1,6
21.01.2021 11:00:00 2,3 0,5 - - 0,8
21.01.2021 10:00:00 1,7 0,5 - - 0,4
21.01.2021 09:00:00 1,4 0,7 3,0 4,9 0,2
21.01.2021 08:00:00 0,9 0,5 - - 0,0
21.01.2021 07:00:00 0,5 0,0 - - 0,0
21.01.2021 06:00:00 0,8 0,1 - - 0,0
21.01.2021 05:00:00 0,6 0,2 - - 0,0
21.01.2021 04:00:00 0,5 0,3 - - 0,0
21.01.2021 03:00:00 0,3 0,0 - - 0,0
21.01.2021 02:00:00 0,2 0,0 - - 0,0
21.01.2021 01:00:00 0,2 0,0 - - 0,0
21.01.2021 00:00:00 0,2 -0,1 - - 0,0
20.01.2021 23:00:00 0,2 -0,1 - - 0,0
20.01.2021 22:00:00 0,4 0,1 - - 0,4
20.01.2021 21:00:00 1,3 1,0 - - 1,2
20.01.2021 20:00:00 1,8 1,6 - - 0,2
20.01.2021 19:00:00 1,8 1,5 - - 0,4
20.01.2021 18:00:00 1,9 1,6 - - 0,6
20.01.2021 17:00:00 1,9 1,7 - - 0,0
20.01.2021 16:00:00 2,0 1,8 - - 0,2
20.01.2021 15:00:00 2,0 1,8 - - 0,4
20.01.2021 14:00:00 1,9 1,7 - - 0,2
20.01.2021 13:00:00 1,9 1,7 - - 0,4
20.01.2021 12:00:00 1,8 1,5 - - 0,2
20.01.2021 11:00:00 1,4 1,2 - - 0,4
20.01.2021 10:00:00 1,2 0,9 - - 0,8
20.01.2021 09:00:00 1,1 0,8 3,0 4,9 0,6
20.01.2021 08:00:00 1,0 0,8 - - 0,4
20.01.2021 07:00:00 1,0 0,7 - - 0,4
20.01.2021 06:00:00 1,0 0,6 - - 0,4
20.01.2021 05:00:00 0,9 0,6 - - 0,4
20.01.2021 04:00:00 1,6 1,3 - - 0,6
20.01.2021 03:00:00 1,2 0,9 - - 0,4
20.01.2021 02:00:00 0,3 -0,1 - - 0,8
20.01.2021 01:00:00 0,3 -0,2 - - 0,6
20.01.2021 00:00:00 0,4 -0,2 - - 0,4
19.01.2021 23:00:00 0,8 0,2 - - 1,6
19.01.2021 22:00:00 1,8 1,1 - - 2,0
19.01.2021 21:00:00 2,3 1,6 - - 2,0
19.01.2021 20:00:00 2,5 1,9 - - 1,2
19.01.2021 19:00:00 2,6 2,1 - - 0,8
19.01.2021 18:00:00 2,7 2,1 - - 0,4
19.01.2021 17:00:00 3,0 2,6 - - 0,6
19.01.2021 16:00:00 3,4 3,1 - - 0,2
19.01.2021 15:00:00 3,4 3,1 - - 0,0
19.01.2021 14:00:00 3,3 3,0 - - 0,0
19.01.2021 13:00:00 2,8 2,5 - - 0,0
19.01.2021 12:00:00 2,7 2,4 - - 0,0
19.01.2021 11:00:00 2,2 2,0 - - 0,0
19.01.2021 10:00:00 1,6 1,3 - - 0,0
19.01.2021 09:00:00 1,3 1,0 3,0 4,9 0,0
19.01.2021 08:00:00 1,7 1,3 - - 0,0
19.01.2021 07:00:00 2,1 1,7 - - 0,0
19.01.2021 06:00:00 2,6 2,2 - - 0,0
19.01.2021 05:00:00 2,5 2,1 - - 0,0
19.01.2021 04:00:00 2,7 2,2 - - 0,0
19.01.2021 03:00:00 3,2 2,5 - - 0,0
19.01.2021 02:00:00 4,2 3,5 - - 0,0
19.01.2021 01:00:00 4,5 3,6 - - 0,0
19.01.2021 00:00:00 5,1 4,0 - - 0,0
18.01.2021 23:00:00 4,3 3,3 - - 0,0
18.01.2021 22:00:00 4,2 3,2 - - 0,0
18.01.2021 21:00:00 5,2 3,8 - - 0,2
18.01.2021 20:00:00 5,3 3,0 - - 0,0
18.01.2021 19:00:00 5,6 3,0 - - 0,0
18.01.2021 18:00:00 5,2 2,5 - - 0,0
18.01.2021 17:00:00 5,6 2,8 - - 0,0
18.01.2021 16:00:00 6,3 3,9 - - 0,2
18.01.2021 15:00:00 6,5 4,7 - - 0,0
18.01.2021 14:00:00 6,5 4,3 - - 0,0
18.01.2021 13:00:00 7,1 4,2 - - 0,0
18.01.2021 12:00:00 6,6 3,5 - - 0,0
18.01.2021 11:00:00 6,1 3,2 - - 0,0
18.01.2021 10:00:00 5,1 3,3 - - 0,0
18.01.2021 09:00:00 3,9 2,5 2,9 4,7 0,0
18.01.2021 08:00:00 4,1 2,6 - - 0,0
18.01.2021 07:00:00 4,2 3,1 - - 0,0
18.01.2021 06:00:00 4,0 3,0 - - 0,0

tt = Température de l'air
td = dewpoint
tt -20cm = Température de l'air -20cm
tt -100cm = Température de l'air -100cm
rr = Quantités de précipitations

stations d'obs. à proximité